Flag for U.S.A. Weather past 2 weeks in Arlington, Texas, U.S.A.

Now
92 °F

Sunny.


Feels Like: 94 °F
Forecast: 77 / 97 °F
Wind: 7 mph from South

Location: Arlington Municipal Airport

Current Time: Jul 25, 2014 at 9:14:05 PM

Latest Report: Jul 25, 2014 at 8:53 PM


Visibility: 10 mi

Pressure: 29.88 "Hg

Humidity: 41%

Dew point: 65 °F

Location of ArlingtonLocation

Historic Weather in Arlington — Graph

°F

Arlington temperature yesterday

Maximum temperature yesterday: 95 °F (at 3:53 PM)
Minimum temperature yesterday: 74 °F (at 5:53 AM)
Average temperature yesterday: 84 °F

Past Weeks' High & Low Weather Summary

 TemperatureHumidityPressure
High101 °F (Jul 14, 2:53 PM)94% (Jul 15, 3:53 AM)30.15 "Hg (Jul 15, 3:53 AM)
Low65 °F (Jul 20, 5:53 AM)23% (Jul 15, 4:53 PM)29.83 "Hg (Jul 16, 6:53 PM)
Average81 °F62%29.98 "Hg
* Reported Jul 10 7:53 PM — Jul 25 7:53 PM, Arlington, Weather by CustomWeather, © 2014

Note: Actual official high and low records may vary slightly from our data, if they occured in-between our weather recording intervals... More about our weather records

Advertising

Arlington weather history for previous 24 hours

 ConditionsComfort  
Time TempWeatherWind HumidityBarometerVisibility
7:53 PM
Jul 25
95 °FScattered clouds.10 mph36%29.87 "Hg10 mi
6:53 PM97 °FSunny.8 mph32%29.87 "Hg10 mi
5:53 PM98 °FSunny.8 mph31%29.87 "Hg10 mi
4:53 PM98 °FPassing clouds.6 mph33%29.89 "Hg10 mi
3:53 PM98 °FSunny.7 mph34%29.90 "Hg10 mi
2:53 PM96 °FSunny.9 mph34%29.92 "Hg10 mi
1:53 PM95 °FSunny.8 mph39%29.94 "Hg10 mi
12:53 PM95 °FSunny.8 mph40%29.96 "Hg10 mi
11:53 AM92 °FSunny.5 mph44%29.98 "Hg10 mi
10:53 AM89 °FSunny.8 mph50%29.99 "Hg10 mi
9:53 AM86 °FSunny.7 mph57%29.99 "Hg10 mi
8:53 AM80 °FSunny.5 mph69%29.99 "Hg10 mi
7:53 AM76 °FSunny.6 mph80%29.98 "Hg10 mi
6:53 AM71 °FClear.No wind87%29.99 "Hg10 mi
5:53 AM71 °FClear.No wind87%29.98 "Hg10 mi
4:53 AM72 °FClear.No wind84%29.98 "Hg10 mi
3:53 AM73 °FClear.No wind81%29.98 "Hg10 mi
2:53 AM75 °FClear.3 mph79%29.98 "Hg10 mi
1:53 AM78 °FClear.No wind71%29.98 "Hg10 mi
12:53 AM79 °FClear.5 mph69%29.98 "Hg10 mi
11:53 PM
Jul 24
81 °FClear.8 mph65%29.97 "Hg10 mi
10:53 PM83 °FClear.7 mph61%29.96 "Hg10 mi
9:53 PM85 °FClear.7 mph55%29.95 "Hg10 mi
Weather by CustomWeather, © 2014

See weather overviewHow to use our weather pages